Location: Andiroba
(19.8650°S, 43.9258°W)
Time: 00:23:41
(UTC+00:00)

ARIANE 5 R/B - Pass Details

Date: 15 June 2024
Orbit: 504 x 17438 km, 6.8° (Epoch: 24 July)

Event Time Altitude Azimuth Distance (km) Brightness Sun altitude
Exits shadow 08:23:29 - 287° (WNW) 6,707 6.3 -14.9°
Reaches altitude 10° 08:29:42 10° 297° (WNW) 4,215 5.4 -13.6°
Maximum altitude 08:36:14 21° 345° (NNW) 1,912 4.1 -12.1°
Drops below altitude 10° 08:39:32 10° 38° (NE) 1,996 5.1 -11.4°
Sets 08:41:36 0° 58° (ENE) 2,656 6.7 -11.0°
